Time,TemperatureF,DewpointF,PressureIn,WindDirection,WindDirectionDegrees,WindSpeedMPH,WindSpeedGustMPH,Humidity,HourlyPrecipIn,Conditions,Clouds,dailyrainin,SolarRadiationWatts/m^2,SoftwareType,DateUTC
2013-05-04 00:02:00,57.0,48.0,-100.00,ENE,58,3.0,7.0,73,0.00,,,0.00,0.000000,,2013-05-04 04:02:00,
2013-05-04 00:33:00,56.0,45.0,-100.00,ENE,71,3.0,7.0,66,0.00,,,0.00,0.000000,,2013-05-04 04:33:00,
2013-05-04 00:43:00,56.0,45.0,-100.00,ENE,71,3.0,7.0,66,0.00,,,0.00,0.000000,,2013-05-04 04:43:00,
2013-05-04 00:53:00,56.0,45.0,-100.00,ENE,71,3.0,7.0,66,0.00,,,0.00,0.000000,,2013-05-04 04:53:00,
2013-05-04 01:02:00,56.0,45.0,-100.00,ENE,71,3.0,7.0,66,0.00,,,0.00,0.000000,,2013-05-04 05:02:00,
2013-05-04 01:32:00,54.0,43.0,-100.00,ENE,75,3.0,9.0,66,0.00,,,0.00,0.000000,,2013-05-04 05:32:00,
2013-05-04 01:43:00,54.0,43.0,-100.00,ENE,75,3.0,9.0,66,0.00,,,0.00,0.000000,,2013-05-04 05:43:00,
2013-05-04 01:52:00,54.0,43.0,-100.00,ENE,75,3.0,9.0,66,0.00,,,0.00,0.000000,,2013-05-04 05:52:00,
2013-05-04 02:01:00,54.0,43.0,-100.00,ENE,75,3.0,9.0,66,0.00,,,0.00,0.000000,,2013-05-04 06:01:00,
2013-05-04 02:22:00,52.0,43.0,-100.00,ENE,65,3.0,11.0,70,0.00,,,0.00,0.000000,,2013-05-04 06:22:00,
2013-05-04 02:32:00,52.0,43.0,-100.00,ENE,65,3.0,11.0,70,0.00,,,0.00,0.000000,,2013-05-04 06:32:00,
2013-05-04 02:42:00,52.0,43.0,-100.00,ENE,65,3.0,11.0,70,0.00,,,0.00,0.000000,,2013-05-04 06:42:00,
2013-05-04 02:52:00,52.0,43.0,-100.00,ENE,65,3.0,11.0,70,0.00,,,0.00,0.000000,,2013-05-04 06:52:00,
2013-05-04 03:01:00,52.0,43.0,-100.00,ENE,65,3.0,11.0,70,0.00,,,0.00,0.000000,,2013-05-04 07:01:00,
2013-05-04 03:32:00,49.0,40.0,-100.00,NE,55,3.0,10.0,72,0.00,,,0.00,0.000000,,2013-05-04 07:32:00,
2013-05-04 03:42:00,49.0,40.0,-100.00,NE,55,3.0,10.0,72,0.00,,,0.00,0.000000,,2013-05-04 07:42:00,
2013-05-04 03:52:00,49.0,40.0,-100.00,NE,55,3.0,10.0,72,0.00,,,0.00,0.000000,,2013-05-04 07:52:00,
2013-05-04 04:02:00,49.0,40.0,-100.00,NE,55,3.0,10.0,72,0.00,,,0.00,0.000000,,2013-05-04 08:02:00,
2013-05-04 04:32:00,49.0,41.0,-100.00,NE,44,4.0,10.0,74,0.00,,,0.00,0.000000,,2013-05-04 08:32:00,
2013-05-04 04:42:00,49.0,41.0,-100.00,NE,44,4.0,10.0,74,0.00,,,0.00,0.000000,,2013-05-04 08:42:00,
2013-05-04 04:52:00,49.0,41.0,-100.00,NE,44,4.0,10.0,74,0.00,,,0.00,0.000000,,2013-05-04 08:52:00,
2013-05-04 05:02:00,49.0,41.0,-100.00,NE,44,4.0,10.0,74,0.00,,,0.00,0.000000,,2013-05-04 09:02:00,
2013-05-04 05:33:00,48.0,41.0,-100.00,NE,49,4.0,11.0,76,0.00,,,0.00,0.000000,,2013-05-04 09:33:00,
2013-05-04 05:42:00,48.0,41.0,-100.00,NE,49,4.0,11.0,76,0.00,,,0.00,0.000000,,2013-05-04 09:42:00,
2013-05-04 05:53:00,48.0,41.0,-100.00,NE,49,4.0,11.0,76,0.00,,,0.00,0.000000,,2013-05-04 09:53:00,
2013-05-04 06:03:00,48.0,41.0,-100.00,NE,49,4.0,11.0,76,0.00,,,0.00,0.000000,,2013-05-04 10:03:00,
2013-05-04 06:23:00,48.0,41.0,-100.00,NE,39,5.0,10.0,78,0.00,,,0.00,0.000000,,2013-05-04 10:23:00,
2013-05-04 06:33:00,48.0,41.0,-100.00,NE,39,5.0,10.0,78,0.00,,,0.00,0.000000,,2013-05-04 10:33:00,
2013-05-04 06:42:00,48.0,41.0,-100.00,NE,39,5.0,10.0,78,0.00,,,0.00,0.000000,,2013-05-04 10:42:00,
2013-05-04 06:53:00,48.0,41.0,-100.00,NE,39,5.0,10.0,78,0.00,,,0.00,0.000000,,2013-05-04 10:53:00,
2013-05-04 07:02:00,48.0,41.0,-100.00,NE,39,5.0,10.0,78,0.00,,,0.00,0.000000,,2013-05-04 11:02:00,
2013-05-04 07:04:00,48.0,42.0,-100.00,NE,45,3.0,10.0,79,0.00,,,0.00,5.000000,,2013-05-04 11:04:00,
2013-05-04 07:22:00,48.0,42.0,-100.00,NE,45,3.0,10.0,79,0.00,,,0.00,5.000000,,2013-05-04 11:22:00,
2013-05-04 07:32:00,48.0,42.0,-100.00,NE,45,3.0,10.0,79,0.00,,,0.00,5.000000,,2013-05-04 11:32:00,
2013-05-04 07:46:00,48.0,42.0,-100.00,NE,45,3.0,10.0,79,0.00,,,0.00,5.000000,,2013-05-04 11:46:00,
2013-05-04 08:03:00,48.0,42.0,-100.00,NE,45,3.0,10.0,79,0.00,,,0.00,5.000000,,2013-05-04 12:03:00,
2013-05-04 08:37:00,48.0,42.0,-100.00,NE,45,4.0,11.0,79,0.00,,,0.00,53.000000,,2013-05-04 12:37:00,
2013-05-04 08:52:00,48.0,42.0,-100.00,NE,45,4.0,11.0,79,0.00,,,0.00,53.000000,,2013-05-04 12:52:00,
2013-05-04 09:01:00,48.0,42.0,-100.00,NE,45,4.0,11.0,79,0.00,,,0.00,53.000000,,2013-05-04 13:01:00,
2013-05-04 09:32:00,49.0,42.0,-100.00,NE,45,3.0,10.0,78,0.00,,,0.00,115.000000,,2013-05-04 13:32:00,
2013-05-04 09:42:00,49.0,42.0,-100.00,NE,45,3.0,10.0,78,0.00,,,0.00,115.000000,,2013-05-04 13:42:00,
2013-05-04 09:53:00,49.0,42.0,-100.00,NE,45,3.0,10.0,78,0.00,,,0.00,115.000000,,2013-05-04 13:53:00,
2013-05-04 10:02:00,49.0,42.0,-100.00,NE,45,3.0,10.0,78,0.00,,,0.00,115.000000,,2013-05-04 14:02:00,
2013-05-04 10:22:00,50.0,43.0,-100.00,NE,56,4.0,12.0,77,0.00,,,0.00,173.000000,,2013-05-04 14:22:00,
2013-05-04 10:32:00,50.0,43.0,-100.00,NE,56,4.0,12.0,77,0.00,,,0.00,173.000000,,2013-05-04 14:32:00,
2013-05-04 10:42:00,50.0,43.0,-100.00,NE,56,4.0,12.0,77,0.00,,,0.00,173.000000,,2013-05-04 14:42:00,
2013-05-04 10:52:00,50.0,43.0,-100.00,NE,56,4.0,12.0,77,0.00,,,0.00,173.000000,,2013-05-04 14:52:00,
2013-05-04 11:02:00,50.0,43.0,-100.00,NE,56,4.0,12.0,77,0.00,,,0.00,173.000000,,2013-05-04 15:02:00,
2013-05-04 11:22:00,50.0,45.0,-100.00,NE,54,3.0,11.0,83,0.00,,,0.00,188.000000,,2013-05-04 15:22:00,
2013-05-04 11:33:00,50.0,45.0,-100.00,NE,54,3.0,11.0,83,0.00,,,0.00,188.000000,,2013-05-04 15:33:00,
2013-05-04 11:43:00,50.0,45.0,-100.00,NE,54,3.0,11.0,83,0.00,,,0.00,188.000000,,2013-05-04 15:43:00,
2013-05-04 11:53:00,50.0,45.0,-100.00,NE,54,3.0,11.0,83,0.00,,,0.00,188.000000,,2013-05-04 15:53:00,
2013-05-04 12:03:00,50.0,45.0,-100.00,NE,54,3.0,11.0,83,0.00,,,0.00,188.000000,,2013-05-04 16:03:00,
2013-05-04 12:33:00,51.0,47.0,-100.00,NE,50,3.0,9.0,87,0.00,,,0.00,277.000000,,2013-05-04 16:33:00,
2013-05-04 12:42:00,51.0,47.0,-100.00,NE,50,3.0,9.0,87,0.00,,,0.00,277.000000,,2013-05-04 16:42:00,
2013-05-04 12:52:00,51.0,47.0,-100.00,NE,50,3.0,9.0,87,0.00,,,0.00,277.000000,,2013-05-04 16:52:00,
2013-05-04 13:02:00,51.0,47.0,-100.00,NE,50,3.0,9.0,87,0.00,,,0.00,277.000000,,2013-05-04 17:02:00,
2013-05-04 13:33:00,53.0,45.0,-100.00,NE,44,4.0,9.0,73,0.00,,,0.00,361.000000,,2013-05-04 17:33:00,
2013-05-04 13:42:00,53.0,45.0,-100.00,NE,44,4.0,9.0,73,0.00,,,0.00,361.000000,,2013-05-04 17:42:00,
2013-05-04 13:52:00,53.0,45.0,-100.00,NE,44,4.0,9.0,73,0.00,,,0.00,361.000000,,2013-05-04 17:52:00,
2013-05-04 14:01:00,53.0,45.0,-100.00,NE,44,4.0,9.0,73,0.00,,,0.00,361.000000,,2013-05-04 18:01:00,
2013-05-04 14:32:00,56.0,45.0,-100.00,NE,37,6.0,14.0,66,0.00,,,0.00,478.000000,,2013-05-04 18:32:00,
2013-05-04 14:42:00,56.0,45.0,-100.00,NE,37,6.0,14.0,66,0.00,,,0.00,478.000000,,2013-05-04 18:42:00,
2013-05-04 14:52:00,56.0,45.0,-100.00,NE,37,6.0,14.0,66,0.00,,,0.00,478.000000,,2013-05-04 18:52:00,
2013-05-04 15:01:00,56.0,45.0,-100.00,NE,37,6.0,14.0,66,0.00,,,0.00,478.000000,,2013-05-04 19:01:00,
2013-05-04 15:32:00,58.0,45.0,-100.00,ENE,74,5.0,10.0,62,0.00,,,0.00,568.000000,,2013-05-04 19:32:00,
2013-05-04 15:42:00,58.0,45.0,-100.00,ENE,74,5.0,10.0,62,0.00,,,0.00,568.000000,,2013-05-04 19:42:00,
2013-05-04 15:52:00,58.0,45.0,-100.00,ENE,74,5.0,10.0,62,0.00,,,0.00,568.000000,,2013-05-04 19:52:00,
2013-05-04 16:02:00,58.0,45.0,-100.00,ENE,74,5.0,10.0,62,0.00,,,0.00,568.000000,,2013-05-04 20:02:00,
2013-05-04 16:32:00,60.0,44.0,-100.00,ENE,58,5.0,11.0,55,0.00,,,0.00,674.000000,,2013-05-04 20:32:00,
2013-05-04 16:42:00,60.0,44.0,-100.00,ENE,58,5.0,11.0,55,0.00,,,0.00,674.000000,,2013-05-04 20:42:00,
2013-05-04 16:52:00,60.0,44.0,-100.00,ENE,58,5.0,11.0,55,0.00,,,0.00,674.000000,,2013-05-04 20:52:00,
2013-05-04 17:02:00,60.0,44.0,-100.00,ENE,58,5.0,11.0,55,0.00,,,0.00,674.000000,,2013-05-04 21:02:00,
2013-05-04 17:33:00,61.0,44.0,-100.00,NE,54,4.0,12.0,53,0.00,,,0.00,522.000000,,2013-05-04 21:33:00,
2013-05-04 17:43:00,61.0,44.0,-100.00,NE,54,4.0,12.0,53,0.00,,,0.00,522.000000,,2013-05-04 21:43:00,
2013-05-04 17:53:00,61.0,44.0,-100.00,NE,54,4.0,12.0,53,0.00,,,0.00,522.000000,,2013-05-04 21:53:00,
2013-05-04 18:03:00,61.0,44.0,-100.00,NE,54,4.0,12.0,53,0.00,,,0.00,522.000000,,2013-05-04 22:03:00,
2013-05-04 18:22:00,60.0,45.0,-100.00,East,79,3.0,13.0,58,0.00,,,-99.99,217.000000,,2013-05-04 22:22:00,
2013-05-04 18:33:00,60.0,45.0,-100.00,East,79,3.0,13.0,58,0.00,,,-99.99,217.000000,,2013-05-04 22:33:00,
2013-05-04 18:43:00,60.0,45.0,-100.00,East,79,3.0,13.0,58,0.00,,,-99.99,217.000000,,2013-05-04 22:43:00,
2013-05-04 18:52:00,60.0,45.0,-100.00,East,79,3.0,13.0,58,0.00,,,-99.99,217.000000,,2013-05-04 22:52:00,
2013-05-04 19:02:00,60.0,45.0,-100.00,East,79,3.0,13.0,58,0.00,,,-99.99,217.000000,,2013-05-04 23:02:00,
2013-05-04 19:22:00,58.0,46.0,-100.00,ENE,71,4.0,11.0,64,0.00,,,-99.99,79.000000,,2013-05-04 23:22:00,
2013-05-04 19:32:00,58.0,46.0,-100.00,ENE,71,4.0,11.0,64,0.00,,,-99.99,79.000000,,2013-05-04 23:32:00,
2013-05-04 19:42:00,58.0,46.0,-100.00,ENE,71,4.0,11.0,64,0.00,,,-99.99,79.000000,,2013-05-04 23:42:00,
2013-05-04 19:52:00,58.0,46.0,-100.00,ENE,71,4.0,11.0,64,0.00,,,-99.99,79.000000,,2013-05-04 23:52:00,
2013-05-04 20:02:00,58.0,46.0,-100.00,ENE,71,4.0,11.0,64,0.00,,,-99.99,79.000000,,2013-05-05 00:02:00,
2013-05-04 20:32:00,56.0,45.0,-100.00,NE,46,5.0,14.0,66,0.00,,,0.00,29.000000,,2013-05-05 00:32:00,
2013-05-04 20:42:00,56.0,45.0,-100.00,NE,46,5.0,14.0,66,0.00,,,0.00,29.000000,,2013-05-05 00:42:00,
2013-05-04 20:52:00,56.0,45.0,-100.00,NE,46,5.0,14.0,66,0.00,,,0.00,29.000000,,2013-05-05 00:52:00,
2013-05-04 21:01:00,56.0,45.0,-100.00,NE,46,5.0,14.0,66,0.00,,,0.00,29.000000,,2013-05-05 01:01:00,
2013-05-04 21:22:00,54.0,45.0,-100.00,NE,41,4.0,11.0,71,0.00,,,0.00,1.000000,,2013-05-05 01:22:00,
2013-05-04 21:32:00,54.0,45.0,-100.00,NE,41,4.0,11.0,71,0.00,,,0.00,1.000000,,2013-05-05 01:32:00,
2013-05-04 21:42:00,54.0,45.0,-100.00,NE,41,4.0,11.0,71,0.00,,,0.00,1.000000,,2013-05-05 01:42:00,
2013-05-04 21:52:00,54.0,45.0,-100.00,NE,41,4.0,11.0,71,0.00,,,0.00,1.000000,,2013-05-05 01:52:00,
2013-05-04 22:02:00,54.0,45.0,-100.00,NE,41,4.0,11.0,71,0.00,,,0.00,1.000000,,2013-05-05 02:02:00,
2013-05-04 22:32:00,54.0,47.0,-100.00,NE,41,4.0,11.0,76,0.00,,,0.00,0.000000,,2013-05-05 02:32:00,
2013-05-04 22:42:00,54.0,47.0,-100.00,NE,41,4.0,11.0,76,0.00,,,0.00,0.000000,,2013-05-05 02:42:00,
2013-05-04 22:52:00,54.0,47.0,-100.00,NE,41,4.0,11.0,76,0.00,,,0.00,0.000000,,2013-05-05 02:52:00,
2013-05-04 23:01:00,54.0,47.0,-100.00,NE,41,4.0,11.0,76,0.00,,,0.00,0.000000,,2013-05-05 03:01:00,
2013-05-04 23:22:00,54.0,48.0,-100.00,NE,53,4.0,12.0,80,0.00,,,0.00,0.000000,,2013-05-05 03:22:00,
2013-05-04 23:33:00,54.0,48.0,-100.00,NE,53,4.0,12.0,80,0.00,,,0.00,0.000000,,2013-05-05 03:33:00,
2013-05-04 23:42:00,54.0,48.0,-100.00,NE,53,4.0,12.0,80,0.00,,,0.00,0.000000,,2013-05-05 03:42:00,
2013-05-04 23:53:00,54.0,48.0,-100.00,NE,53,4.0,12.0,80,0.00,,,0.00,0.000000,,2013-05-05 03:53:00,